Wind_Speed
7 6 7 7 3 2 4 1 2 4 4 9 10 8 6 5 4 5 10 8 5 1 2 3 5 6 6 6 7 9 11 12 12 11 11 11 11 11 11 10 8 7 8 8 8 7 5 5 5
7 7 7 4 2 5 5 1 3 4 8 10 10 9 7 4 5 8 8 7 5 2 2 2 3 6 7 7 8 8 9 9 10 10 11 11 10 10 9 7 8 6 8 6 6 6 6 6 5
7 6 4 3 2 6 4 3 4 9 9 9 10 9 5 6 8 7 7 8 8 6 6 4 4 6 8 9 10 10 10 10 11 11 11 9 9 8 8 7 6 6 7 7 6 6 5 6 5
6 5 3 1 6 7 5 7 9 8 9 8 9 6 10 10 9 8 7 6 8 8 9 8 7 7 8 10 11 12 12 12 13 13 12 11 10 9 9 7 7 8 8 8 8 8 6 6 6
5 4 3 5 7 5 7 8 7 7 8 10 9 5 12 9 6 5 7 7 7 8 9 10 10 10 9 10 13 13 13 14 14 14 14 14 12 12 10 9 9 9 9 9 9 9 8 8 8
5 4 5 7 6 7 7 5 6 6 7 10 12 11 8 6 8 11 13 11 9 8 9 10 11 12 12 12 13 14 14 15 15 15 16 15 15 14 13 11 11 11 10 10 10 11 11 11 11
5 6 8 10 10 7 5 7 5 5 10 9 13 12 6 12 12 13 13 12 11 11 10 10 11 12 14 14 14 14 15 16 15 16 17 16 17 16 16 14 14 13 12 12 12 12 13 13 13
8 10 9 7 6 11 11 14 12 13 11 13 13 8 6 16 14 14 14 15 13 13 13 13 13 13 14 15 15 16 17 18 16 17 18 18 19 18 18 17 15 15 14 14 14 14 14 14 14
13 12 11 13 10 6 15 18 22 19 15 14 15 10 13 15 14 14 13 13 16 17 16 17 17 16 16 16 17 19 20 21 20 19 20 20 20 20 20 19 18 17 17 16 16 16 16 16 16
18 14 13 14 15 19 17 21 24 24 22 16 19 18 19 19 17 16 15 14 13 14 18 19 20 20 20 19 19 20 20 21 22 22 22 23 24 23 23 22 22 20 21 20 19 19 19 18 18
23 25 17 21 24 25 28 27 29 28 25 20 18 21 23 24 20 20 18 18 18 17 17 18 20 21 23 22 22 22 21 22 22 23 23 25 27 26 26 25 24 24 23 22 22 22 21 21 21
27 28 26 26 28 30 29 28 32 31 29 21 21 24 25 25 26 26 23 21 22 21 18 19 20 22 23 24 24 24 24 23 24 24 25 26 27 27 27 27 27 27 26 25 24 23 23 22 21
30 31 29 30 30 33 32 30 32 35 31 25 25 26 28 27 27 29 28 25 25 25 25 25 24 24 24 26 25 26 25 26 26 27 28 28 29 29 29 29 29 29 28 27 27 25 24 23 23
30 36 35 34 35 34 34 31 29 29 27 25 23 25 27 29 28 29 29 28 28 29 29 29 29 27 28 28 27 27 27 28 29 29 29 29 30 30 31 31 32 31 30 30 30 28 27 26 25
30 33 37 37 32 30 24 34 29 22 23 30 27 28 30 33 31 32 34 35 34 35 35 35 34 34 34 32 31 32 32 31 32 32 32 32 33 33 33 34 34 34 33 33 32 31 30 29 28
35 28 26 20 24 27 23 25 31 24 31 34 34 33 32 31 32 33 33 36 38 40 41 41 41 40 39 39 37 36 36 36 36 36 36 36 36 36 35 36 36 36 36 35 35 34 34 32 31
17 24 24 23 21 26 23 21 32 37 36 37 33 29 27 26 25 30 32 33 35 36 38 41 43 44 42 42 43 43 42 42 40 40 41 40 39 40 39 39 38 38 38 38 38 38 37 36 35
25 28 29 25 26 32 32 35 33 34 36 32 26 23 21 20 24 28 28 24 27 27 26 28 32 34 35 37 40 45 46 46 46 45 46 46 44 44 43 42 41 41 41 41 41 39 39 40 38
29 30 32 31 29 32 33 32 30 34 31 22 16 23 25 27 33 29 21 14 12 11 10 10 13 17 21 24 28 32 35 39 45 49 51 51 49 47 46 45 44 44 44 43 42 42 43 43 41
31 29 31 31 23 24 29 32 34 4 7 24 22 16 16 21 23 16 13 12 10 11 11 13 17 22 19 25 27 28 31 35 39 42 47 53 52 51 50 49 48 46 46 46 45 45 45 46 43
27 28 30 30 27 28 20 21 21 12 21 20 16 17 21 20 16 12 12 13 15 16 18 18 21 24 23 21 26 31 31 31 36 40 43 47 52 52 52 53 52 50 50 48 47 46 47 47 44
20 17 22 25 18 17 17 16 18 19 13 12 9 21 20 18 13 9 13 19 22 21 18 21 22 18 19 21 23 27 31 34 35 36 38 43 47 53 54 54 55 54 54 53 51 48 48 49 47
18 21 19 21 25 24 20 18 12 16 13 12 16 15 12 10 13 21 20 17 17 13 13 14 13 15 18 20 21 25 29 33 35 37 38 39 43 48 53 53 55 56 55 54 54 52 51 51 49
23 24 23 24 18 12 12 11 8 4 2 15 12 12 15 20 23 23 24 20 17 18 19 18 18 19 19 20 22 24 25 26 30 34 37 39 40 43 47 50 53 55 56 54 54 53 52 51 52
17 18 11 11 12 14 16 11 17 6 12 21 23 23 29 29 26 26 23 24 24 25 26 25 27 27 27 30 29 27 27 25 23 23 26 29 33 36 40 45 48 52 54 54 54 54 53 51 51
20 15 13 10 14 19 28 19 22 23 23 23 30 35 39 32 29 26 31 29 29 33 35 36 38 40 38 35 33 30 28 27 29 25 23 22 23 27 31 35 42 46 51 53 54 55 54 52 53
16 19 19 19 29 14 28 37 35 33 34 33 37 41 41 35 29 29 31 31 34 36 37 41 41 46 44 38 35 34 31 28 29 31 32 33 34 30 28 29 32 38 46 50 53 55 55 52 52
19 21 16 12 5 15 17 29 27 26 26 32 35 36 34 33 34 32 30 29 27 27 30 33 36 38 41 43 43 38 37 38 39 41 42 40 40 40 33 30 31 31 36 43 48 51 54 54 55
20 25 23 25 28 13 16 21 32 27 20 27 29 29 30 28 25 29 32 38 41 43 45 46 40 40 39 39 41 42 43 44 47 47 42 41 41 42 42 36 34 34 33 34 40 45 49 52 53
30 32 28 27 14 25 28 23 30 39 36 29 25 21 22 25 32 40 52 53 52 47 43 37 32 33 35 37 38 40 41 44 46 46 47 44 42 42 43 43 40 38 39 37 36 39 45 50 53
Wind_Direction
312 311 327 338 356 294 284 324 281 331 346 325 333 339 314 323 315 290 303 321 334 322 207 200 206 206 195 195 214 225 231 237 238 234 243 252 253 254 256 259 262 262 262 263 267 264 258 252 258
319 320 332 332 317 283 74 325 341 315 307 322 333 344 352 316 308 297 300 310 321 301 233 189 237 230 228 226 221 227 230 236 240 241 238 237 244 249 254 261 262 256 258 266 262 262 261 261 258
327 331 352 283 292 339 2 349 310 317 319 324 337 346 6 334 315 305 300 298 302 294 282 269 246 242 239 235 238 238 238 237 239 237 239 242 245 253 259 258 260 261 256 253 248 250 254 268 277
341 341 337 278 293 305 272 290 295 312 317 322 328 345 334 321 316 317 310 295 290 293 288 283 280 249 234 238 241 244 245 242 241 242 247 246 242 246 247 252 251 246 242 242 242 245 248 259 263
344 338 262 279 293 289 301 296 298 308 308 325 331 326 323 323 305 310 325 313 286 274 273 275 280 279 262 237 238 244 246 248 246 243 241 244 242 240 240 247 252 254 255 253 254 256 255 254 260
340 323 277 286 294 305 317 324 317 315 309 317 319 327 319 318 309 298 303 300 295 285 276 269 266 267 268 264 252 246 244 245 245 243 246 245 243 244 252 256 257 255 253 251 252 256 257 257 259
310 296 279 284 297 308 291 310 316 294 313 309 313 318 302 297 306 307 300 293 285 279 273 270 269 264 258 257 258 260 255 250 247 244 245 244 245 248 254 259 264 269 270 268 261 256 256 258 260
301 295 275 283 287 293 278 305 294 296 292 302 304 317 307 282 302 301 297 287 279 274 269 266 262 259 260 258 253 255 259 259 257 252 251 248 248 250 253 256 262 266 271 272 273 271 269 269 268
289 274 273 275 286 300 296 300 301 300 299 303 301 287 283 283 286 292 294 290 278 273 270 267 261 255 253 254 254 254 254 256 257 253 254 256 258 258 259 262 265 269 271 272 274 275 276 277 278
282 268 272 267 277 283 282 290 297 295 302 305 297 301 290 285 278 282 282 282 283 276 268 265 264 261 257 252 252 252 252 254 255 255 254 256 258 257 259 261 263 265 268 272 274 275 274 275 275
283 279 281 278 289 285 287 290 293 298 293 303 294 291 289 289 281 279 276 271 272 272 276 272 267 264 262 260 256 255 254 254 256 253 253 252 254 257 260 261 263 264 265 267 270 272 273 273 275
283 289 286 288 287 286 289 290 292 292 292 293 288 283 282 280 279 281 274 269 264 267 270 272 269 266 261 258 257 257 255 253 254 254 254 252 254 255 256 256 258 260 263 263 264 266 268 270 271
286 286 287 291 288 290 292 290 293 285 292 296 286 283 283 278 276 276 276 270 263 259 262 263 263 263 260 257 257 257 257 256 256 255 256 256 257 258 258 257 256 257 259 261 263 264 266 268 270
281 286 290 291 291 292 294 294 290 295 301 292 286 282 280 280 279 276 274 269 267 258 253 253 256 256 254 256 256 256 256 256 255 257 256 256 257 258 259 258 259 258 259 260 260 261 265 268 271
286 287 288 292 295 281 301 295 300 309 305 298 292 286 282 285 284 279 273 271 265 260 256 255 254 253 255 254 253 254 255 256 256 255 255 254 255 257 258 259 258 257 258 259 260 262 263 264 266
286 287 286 292 294 293 290 288 303 291 296 293 295 295 293 286 284 282 273 266 262 259 258 258 258 257 255 256 256 254 254 254 255 255 255 253 253 255 257 259 260 261 261 261 261 262 263 264 265
270 273 283 290 295 294 295 285 295 302 298 302 301 299 291 287 280 274 269 265 265 262 261 260 259 260 259 256 257 257 255 255 255 255 255 253 253 254 254 255 258 260 261 261 262 263 264 264 264
284 285 284 285 294 291 292 288 293 299 305 307 304 297 287 284 268 265 268 269 263 261 261 262 262 261 262 260 257 258 259 258 257 256 257 254 251 251 252 253 254 257 259 259 260 261 263 263 263
281 280 282 285 294 290 290 292 298 308 307 305 288 289 282 270 265 268 269 248 230 236 237 255 279 281 277 272 266 261 260 260 260 259 257 256 254 251 251 252 253 254 257 259 260 260 259 260 262
279 279 285 291 295 294 295 295 316 315 314 304 292 281 250 244 251 246 234 230 256 266 272 279 298 313 294 275 268 268 265 261 258 257 256 254 254 252 252 253 255 255 255 256 258 260 261 261 262
279 283 290 292 296 300 298 298 312 277 311 286 273 268 242 239 228 228 239 266 293 293 287 293 293 306 297 285 280 268 264 264 262 260 257 255 251 251 252 254 255 256 257 259 259 258 259 261 261
277 289 288 298 302 302 311 298 291 297 277 276 246 235 239 220 220 246 286 296 296 298 305 308 311 299 284 295 294 285 272 268 266 264 261 258 251 247 248 249 252 255 256 256 256 257 258 256 257
291 293 289 293 296 295 290 271 300 289 281 196 220 210 208 229 270 288 284 287 287 284 287 297 305 297 288 293 300 294 283 276 271 272 267 260 255 251 252 251 249 250 252 255 258 257 259 258 256
291 291 290 291 286 271 294 257 295 300 301 214 221 232 268 286 294 300 298 295 295 289 301 304 299 300 309 309 314 314 306 295 286 280 276 270 262 256 255 253 251 252 253 251 252 254 255 258 259
294 289 296 278 259 267 280 279 265 264 291 245 236 271 283 284 287 294 290 286 293 298 301 291 286 285 291 303 303 306 306 307 312 305 295 284 276 271 265 260 256 254 252 251 248 247 249 253 255
282 265 262 287 284 294 290 270 259 276 264 258 263 266 271 273 282 285 284 288 294 298 294 294 294 295 299 303 306 305 297 290 292 300 309 308 311 293 280 271 266 261 258 254 249 245 244 246 249
278 263 271 272 272 283 269 272 270 270 265 259 259 260 263 267 268 268 268 274 286 289 288 292 293 290 298 307 304 299 298 292 287 287 291 295 299 306 302 295 285 274 264 259 254 247 242 243 247
253 267 277 256 254 261 263 273 272 283 254 258 253 252 254 257 260 271 284 291 292 294 299 301 301 297 296 296 297 297 293 294 297 298 296 293 290 294 297 292 291 285 277 268 261 254 248 244 243
278 268 261 268 253 260 268 267 275 281 268 260 246 243 253 267 282 289 297 300 298 295 298 303 299 289 289 290 290 288 287 287 290 292 293 291 291 291 292 289 285 282 276 270 266 261 256 253 251
267 265 265 256 255 246 260 260 269 278 278 272 262 255 261 275 290 296 302 299 302 299 299 295 286 283 284 285 286 286 288 287 287 286 290 295 291 288 288 287 279 277 276 268 264 262 261 257 254
Height
3168 3168 3168 3167 3174 3170 3168 3169 3167 3168 3168 3165 3164 3164 3163 3162 3164 3165 3160 3158 3158 3158 3158 3159 3159 3159 3160 3161 3163 3163 3164 3165 3166 3167 3167 3168 3168 3169 3170 3170 3171 3171 3171 3171 3172 3172 3172 3173 3173
3168 3168 3168 3169 3173 3168 3167 3169 3169 3168 3166 3165 3164 3163 3163 3164 3162 3161 3159 3158 3157 3157 3158 3158 3159 3159 3159 3160 3161 3163 3163 3164 3165 3165 3166 3167 3168 3169 3169 3169 3170 3170 3170 3170 3171 3172 3172 3172 3172
3169 3169 3170 3171 3171 3169 3170 3170 3169 3167 3165 3165 3164 3163 3162 3163 3161 3160 3159 3158 3157 3156 3156 3157 3158 3159 3159 3159 3160 3161 3162 3163 3164 3165 3166 3166 3168 3168 3168 3168 3168 3169 3168 3169 3170 3171 3171 3171 3171
3169 3170 3170 3171 3171 3171 3170 3169 3168 3166 3165 3164 3164 3163 3162 3161 3159 3158 3158 3157 3157 3156 3156 3156 3157 3157 3158 3158 3159 3160 3161 3162 3163 3163 3164 3165 3166 3167 3167 3168 3168 3168 3168 3168 3168 3169 3169 3170 3170
3169 3169 3171 3170 3170 3169 3168 3167 3166 3165 3165 3164 3163 3164 3161 3159 3158 3157 3157 3156 3156 3155 3155 3155 3155 3156 3156 3157 3157 3158 3159 3160 3161 3162 3163 3164 3164 3164 3165 3166 3166 3167 3167 3166 3166 3167 3167 3168 3169
3169 3170 3171 3170 3169 3169 3166 3165 3165 3164 3164 3163 3162 3161 3160 3158 3157 3157 3156 3155 3154 3154 3154 3153 3154 3154 3154 3155 3156 3156 3157 3158 3159 3160 3161 3162 3162 3162 3163 3163 3164 3164 3164 3164 3165 3165 3166 3166 3167
3169 3170 3170 3168 3168 3167 3166 3164 3164 3164 3163 3163 3161 3160 3160 3157 3156 3155 3153 3153 3152 3152 3152 3151 3151 3151 3152 3152 3153 3153 3154 3156 3157 3158 3158 3159 3160 3160 3160 3161 3161 3160 3160 3161 3162 3163 3164 3164 3164
3168 3168 3168 3167 3167 3167 3164 3163 3163 3163 3163 3161 3160 3159 3160 3155 3154 3153 3151 3150 3149 3149 3149 3149 3149 3148 3149 3149 3150 3151 3152 3152 3154 3155 3155 3156 3156 3157 3158 3158 3158 3158 3158 3158 3159 3159 3160 3160 3161
3165 3167 3166 3166 3165 3165 3161 3160 3157 3160 3160 3159 3156 3156 3155 3152 3151 3150 3149 3148 3147 3146 3146 3145 3145 3145 3146 3146 3147 3147 3148 3149 3150 3151 3152 3152 3153 3154 3154 3154 3154 3155 3155 3155 3156 3156 3156 3157 3157
3163 3163 3163 3163 3162 3160 3160 3157 3156 3156 3156 3156 3154 3152 3150 3149 3148 3147 3146 3145 3144 3143 3142 3142 3142 3142 3142 3143 3143 3143 3144 3145 3146 3147 3148 3149 3149 3150 3151 3152 3151 3151 3151 3152 3152 3153 3153 3154 3154
3158 3158 3160 3159 3157 3156 3154 3154 3151 3150 3151 3152 3151 3150 3148 3146 3144 3143 3142 3142 3141 3139 3139 3138 3138 3138 3138 3139 3139 3140 3140 3141 3141 3142 3144 3145 3145 3146 3146 3147 3147 3148 3148 3149 3149 3149 3150 3150 3150
3153 3152 3154 3154 3152 3150 3149 3149 3146 3145 3145 3148 3147 3144 3142 3141 3140 3138 3138 3137 3136 3136 3135 3135 3134 3133 3133 3134 3134 3135 3135 3136 3137 3138 3138 3139 3140 3141 3142 3143 3143 3144 3144 3145 3146 3146 3146 3147 3147
3148 3147 3147 3147 3147 3145 3144 3144 3141 3137 3140 3141 3139 3138 3137 3135 3134 3132 3131 3131 3130 3130 3130 3129 3129 3128 3128 3128 3130 3130 3131 3132 3133 3133 3134 3135 3135 3136 3137 3138 3139 3139 3139 3140 3141 3142 3142 3143 3143
3146 3143 3142 3141 3139 3138 3137 3137 3136 3137 3135 3134 3133 3132 3129 3127 3128 3126 3125 3125 3124 3124 3123 3122 3122 3122 3122 3123 3124 3125 3126 3127 3127 3128 3129 3130 3130 3131 3132 3133 3134 3134 3135 3136 3136 3137 3138 3138 3139
3139 3136 3136 3137 3135 3131 3131 3131 3130 3131 3129 3127 3128 3126 3125 3122 3121 3118 3117 3116 3117 3117 3116 3115 3115 3116 3116 3117 3118 3119 3119 3120 3121 3122 3123 3124 3124 3125 3126 3127 3127 3128 3129 3130 3131 3131 3132 3133 3134
3134 3132 3130 3133 3130 3127 3127 3125 3127 3125 3124 3122 3120 3118 3116 3115 3112 3108 3106 3106 3106 3106 3106 3107 3107 3107 3109 3110 3112 3112 3112 3113 3114 3115 3116 3117 3118 3119 3120 3121 3122 3123 3124 3125 3125 3126 3127 3127 3128
3132 3127 3128 3128 3129 3123 3121 3118 3119 3119 3116 3114 3113 3110 3106 3105 3103 3098 3095 3095 3095 3095 3096 3097 3098 3098 3100 3102 3102 3104 3105 3106 3107 3107 3108 3109 3111 3112 3113 3114 3115 3117 3118 3118 3119 3120 3121 3121 3122
3127 3124 3123 3122 3127 3123 3118 3113 3112 3110 3108 3106 3104 3102 3100 3097 3093 3088 3087 3088 3088 3088 3088 3089 3089 3090 3090 3091 3093 3094 3096 3097 3098 3099 3099 3100 3102 3103 3104 3106 3108 3109 3110 3111 3112 3114 3115 3115 3116
3123 3121 3117 3117 3118 3114 3109 3104 3104 3104 3102 3099 3097 3096 3093 3089 3083 3084 3084 3085 3084 3084 3084 3084 3084 3084 3084 3083 3084 3085 3086 3087 3088 3089 3089 3090 3092 3095 3096 3097 3099 3101 3102 3104 3106 3107 3107 3108 3110
3119 3115 3113 3111 3112 3108 3102 3097 3097 3096 3096 3095 3091 3088 3084 3079 3079 3080 3080 3081 3081 3081 3081 3080 3079 3078 3078 3077 3077 3077 3077 3077 3077 3077 3078 3079 3082 3085 3087 3088 3090 3092 3093 3095 3097 3098 3100 3099 3102
3113 3113 3110 3108 3105 3102 3095 3092 3093 3092 3092 3090 3086 3080 3076 3077 3077 3077 3078 3078 3079 3078 3077 3074 3073 3073 3071 3071 3069 3069 3068 3068 3068 3067 3068 3068 3071 3074 3077 3079 3081 3083 3084 3086 3088 3088 3090 3092 3095
3106 3105 3102 3102 3101 3100 3097 3083 3087 3085 3085 3081 3079 3073 3074 3076 3076 3074 3074 3073 3071 3071 3070 3069 3067 3067 3067 3066 3064 3062 3061 3062 3060 3059 3058 3058 3059 3061 3062 3065 3067 3070 3074 3074 3077 3078 3080 3080 3084
3103 3101 3099 3096 3093 3091 3095 3090 3078 3078 3078 3075 3073 3073 3073 3072 3071 3071 3069 3068 3067 3066 3065 3063 3062 3062 3061 3060 3058 3057 3055 3053 3051 3051 3051 3050 3049 3050 3051 3053 3053 3054 3059 3063 3066 3069 3070 3069 3073
3097 3094 3093 3092 3090 3083 3080 3083 3077 3076 3076 3070 3071 3071 3071 3070 3067 3065 3065 3064 3062 3060 3058 3055 3055 3054 3054 3054 3053 3051 3049 3047 3045 3043 3042 3042 3042 3041 3042 3042 3042 3043 3045 3048 3052 3057 3059 3060 3062
3094 3094 3087 3085 3085 3074 3079 3076 3075 3075 3073 3069 3068 3067 3065 3063 3062 3060 3058 3056 3055 3054 3052 3049 3050 3050 3049 3049 3048 3048 3046 3044 3041 3039 3037 3034 3033 3033 3033 3032 3033 3033 3033 3035 3038 3040 3045 3049 3050
3093 3093 3092 3082 3075 3073 3079 3066 3065 3069 3066 3065 3063 3060 3058 3057 3055 3053 3051 3050 3049 3048 3047 3047 3043 3041 3041 3042 3041 3040 3039 3038 3037 3034 3033 3031 3028 3026 3025 3023 3023 3024 3024 3024 3025 3027 3030 3034 3036
3089 3086 3086 3082 3077 3074 3065 3061 3062 3063 3056 3057 3055 3053 3049 3047 3048 3048 3047 3045 3043 3041 3038 3037 3036 3036 3034 3032 3033 3033 3031 3030 3028 3027 3025 3023 3021 3020 3018 3015 3013 3013 3013 3014 3014 3015 3017 3022 3025
3081 3082 3081 3079 3076 3067 3057 3054 3051 3054 3047 3046 3046 3045 3045 3042 3041 3041 3040 3039 3037 3035 3032 3029 3029 3030 3028 3026 3024 3023 3022 3021 3019 3018 3017 3015 3013 3012 3011 3009 3006 3004 3003 3004 3005 3005 3007 3009 3010
3077 3075 3076 3073 3068 3060 3057 3050 3046 3046 3044 3039 3039 3038 3037 3036 3036 3034 3034 3033 3030 3028 3026 3023 3023 3022 3020 3018 3015 3014 3012 3011 3009 3007 3006 3005 3003 3003 3001 3000 2998 2997 2995 2994 2995 2995 2997 2998 3001
3066 3065 3069 3065 3057 3053 3050 3042 3043 3039 3037 3035 3032 3031 3030 3029 3026 3026 3026 3024 3023 3021 3016 3015 3014 3012 3011 3008 3006 3003 3001 2999 2997 2996 2993 2992 2992 2990 2988 2988 2988 2988 2987 2985 2983 2984 2985 2984 2987